{"data":{"norad_id":82051,"epoch":"2026-05-24T00:05:00.146688Z","epoch_age_seconds":154397,"freshness":"FRESH","line1":"1 82051U          26144.00347392  .00004364  00000+0  13935-2 0  9990","line2":"2 82051  98.7404 237.0709 0092336 139.5863 221.2231 14.37782071595716","mean_motion":14.37782071,"eccentricity":0.0092336,"inclination_deg":98.7404,"raan_deg":237.0709,"arg_perigee_deg":139.5863,"mean_anomaly_deg":221.2231,"bstar":0.0013935,"rev_number":59571,"period_min":100.15426044355,"perigee_km":699.87131881401,"apogee_km":831.80049528306,"semimajor_km":7143.9729070485,"source":"CELESTRAK","updated_at":"2026-05-25T13:38:11.090653Z"}}